Stations météo

réclame
Mon MeteoGroup
Plymouth, Grande-Bretagne (3827): Température de l'air & dewpoint: 08.08.2018 20:00:00 - 14.08.2018 20:00:00 (BST)Plymouth, Grande-Bretagne (3827): Vitesse du vent & gusts: 08.08.2018 20:00:00 - 14.08.2018 20:00:00 (BST)Plymouth, Grande-Bretagne (3827): Direction du vent: 08.08.2018 20:00:00 - 14.08.2018 20:00:00 (BST)Plymouth, Grande-Bretagne (3827): reduced air pressure: 08.08.2018 20:00:00 - 14.08.2018 20:00:00 (BST)Plymouth, Grande-Bretagne (3827): visibility: 08.08.2018 20:00:00 - 14.08.2018 20:00:00 (BST)Plymouth, Grande-Bretagne (3827): Quantités de précipitations: 08.08.2018 20:00:00 - 14.08.2018 20:00:00 (BST)
Date & Time tt [°C] td [°C] ff [km/h] ff [knt] fx [km/h] fx [knt] dd ppp [hPa] vv [km] rr [mm]
14.08.2018 20:00:00 - - - - - - - - - -
14.08.2018 19:00:00 18,6 14,3 16 9 - - W 1020,1 16 0,0
14.08.2018 18:00:00 18,9 14,1 22 12 - - WNW 1020,1 15 0,0
14.08.2018 17:00:00 19,8 15,1 18 10 - - WSW 1020,1 18 0,0
14.08.2018 16:00:00 21,2 15,5 22 12 - - W 1019,9 17 0,0
14.08.2018 15:00:00 21,5 16,1 22 12 - - W 1019,7 35 0,0
14.08.2018 14:00:00 20,0 16,4 22 12 - - WNW 1019,7 14 0,0
14.08.2018 13:00:00 19,1 17,6 11 6 - - WSW 1019,5 21 0,0
14.08.2018 12:00:00 19,4 16,5 15 8 - - W 1019,2 30 0,0
14.08.2018 11:00:00 18,3 15,8 15 8 - - W 1019,2 40 0,0
14.08.2018 10:00:00 17,6 16,5 18 10 - - W 1018,8 16 0,0
14.08.2018 09:00:00 17,1 16,8 8 4 - - W 1018,3 20 0,0
14.08.2018 08:00:00 16,4 16,1 11 6 - - WSW 1018,0 1,6 0,4
14.08.2018 07:00:00 15,9 15,3 9 5 - - SW 1017,6 13 0,0
14.08.2018 06:00:00 15,6 14,9 9 5 - - W 1017,1 15 0,0
14.08.2018 05:00:00 15,8 15,1 13 7 - - W 1016,7 14 0,0
14.08.2018 04:00:00 14,9 14,1 9 5 - - W 1016,7 15 0,0
14.08.2018 03:00:00 15,4 14,5 15 8 - - W 1016,3 19 0,0
14.08.2018 02:00:00 16,0 14,9 13 7 - - W 1016,3 19 0,0
14.08.2018 01:00:00 16,4 14,8 15 8 - - W 1016,0 25 0,0
14.08.2018 00:00:00 16,4 14,6 13 7 - - W 1015,7 35 0,0
13.08.2018 23:00:00 17,2 14,4 11 6 - - WNW 1015,2 27 0,0
13.08.2018 22:00:00 17,5 14,4 13 7 - - WNW 1015,0 35 0,0
13.08.2018 21:00:00 18,0 13,7 13 7 - - NNW 1014,2 25 0,0
13.08.2018 20:00:00 19,4 14,0 13 7 - - NW 1013,4 22 0,0
13.08.2018 19:00:00 20,7 13,3 21 11 - - NNW 1012,6 35 0,0
13.08.2018 18:00:00 21,7 13,5 24 13 - - NNW 1011,9 19 0,0
13.08.2018 17:00:00 22,0 15,0 22 12 - - NW 1011,6 26 0,0
13.08.2018 16:00:00 22,3 15,3 21 11 - - WNW 1011,2 17 0,0
13.08.2018 15:00:00 21,2 15,5 16 9 - - WNW 1011,1 27 0,0
13.08.2018 14:00:00 20,8 16,5 13 7 - - WNW 1010,9 24 0,0
13.08.2018 13:00:00 19,0 15,8 15 8 - - WSW 1010,7 23 0,0
13.08.2018 12:00:00 19,9 16,1 13 7 - - SW 1010,5 35 0,0
13.08.2018 11:00:00 17,5 15,0 15 8 - - SW 1010,3 18 0,0
13.08.2018 10:00:00 18,3 15,2 13 7 - - W 1009,6 20 0,0
13.08.2018 09:00:00 17,3 15,9 9 5 - - W 1009,2 9 0,0
13.08.2018 08:00:00 16,0 15,5 11 6 - - W 1009,0 16 0,0
13.08.2018 07:00:00 15,2 14,8 5 3 - - WSW 1008,3 15 0,0
13.08.2018 06:00:00 15,0 14,6 9 5 - - W 1007,7 12 0,0
13.08.2018 05:00:00 15,2 14,7 9 5 - - W 1007,5 19 0,0
13.08.2018 04:00:00 15,1 14,6 8 4 - - W 1007,2 22 0,0
13.08.2018 03:00:00 15,0 14,6 9 5 - - W 1007,1 25 0,0
13.08.2018 02:00:00 15,1 14,6 13 7 - - W 1007,1 14 0,0
13.08.2018 01:00:00 15,3 15,0 8 4 - - W 1007,2 12 0,0
13.08.2018 00:00:00 15,6 15,3 9 5 - - WSW 1007,2 12 0,0
12.08.2018 23:00:00 15,5 15,0 8 4 - - SW 1007,2 13 0,4
12.08.2018 22:00:00 15,6 15,1 11 6 - - SW 1007,2 2,5 0,2
12.08.2018 21:00:00 15,7 15,0 13 7 - - SW 1007,0 20 0,2
12.08.2018 20:00:00 16,0 15,1 11 6 - - SW 1006,9 8 0,2
12.08.2018 19:00:00 17,2 15,7 16 9 - - SSW 1006,9 21 0,0
12.08.2018 18:00:00 18,2 15,9 15 8 - - SSW 1007,1 18 0,0
12.08.2018 17:00:00 18,5 15,9 15 8 - - SSW 1007,3 24 0,0
12.08.2018 16:00:00 19,1 17,0 21 11 - - SSW 1007,6 21 0,0
12.08.2018 15:00:00 20,3 17,7 24 13 - - SSW 1008,0 18 0,0
12.08.2018 14:00:00 17,7 16,9 24 13 - - S 1008,1 7 0,4
12.08.2018 13:00:00 18,4 17,5 18 10 - - SSW 1008,3 28 0,0
12.08.2018 12:00:00 17,5 17,2 18 10 - - SSW 1008,7 14 0,0
12.08.2018 11:00:00 17,4 17,1 28 15 - - S 1008,4 5 0,2
12.08.2018 10:00:00 17,5 17,3 31 17 55 30 S 1008,4 5 0,0
12.08.2018 09:00:00 16,9 16,7 39 21 57 31 S 1008,6 3,3 0,2
12.08.2018 08:00:00 16,5 16,3 26 14 57 31 SSE 1008,9 2,5 11,4
12.08.2018 07:00:00 16,7 16,5 29 16 52 28 S 1009,6 2,5 2,0
12.08.2018 06:00:00 16,9 16,7 34 18 48 26 S 1009,8 4,1 1,8
12.08.2018 05:00:00 16,8 16,6 35 19 52 28 S 1010,5 2,7 2,0
12.08.2018 04:00:00 16,5 16,3 37 20 52 28 S 1011,3 1,8 1,2
12.08.2018 03:00:00 16,5 16,2 31 17 50 27 S 1012,2 2,0 2,2
12.08.2018 02:00:00 16,4 16,0 35 19 55 30 S 1013,2 3,2 0,0
12.08.2018 01:00:00 16,3 16,0 39 21 57 31 S 1014,0 4,7 1,4
12.08.2018 00:00:00 16,4 16,0 42 23 59 32 S 1014,4 1,3 7,2
11.08.2018 23:00:00 16,7 16,2 37 20 55 30 S 1015,4 3,1 3,0
11.08.2018 22:00:00 17,0 16,3 34 18 48 26 S 1016,1 8 0,0
11.08.2018 21:00:00 16,8 16,3 34 18 54 29 S 1016,7 5 2,0
11.08.2018 20:00:00 16,9 16,0 28 15 - - S 1017,4 6 0,0
11.08.2018 19:00:00 16,8 16,0 28 15 - - S 1018,1 7 1,6
11.08.2018 18:00:00 16,5 15,0 29 16 - - SSW 1018,8 3,4 0,0
11.08.2018 17:00:00 17,2 15,8 29 16 46 25 S 1019,0 7 0,0
11.08.2018 16:00:00 17,2 15,9 31 17 - - S 1019,6 8 0,0
11.08.2018 15:00:00 16,8 16,3 31 17 - - S 1020,2 8 2,0
11.08.2018 14:00:00 16,4 16,1 22 12 - - S 1020,7 1,7 3,4
11.08.2018 13:00:00 16,3 15,8 26 14 - - SSW 1021,1 2,9 3,0
11.08.2018 12:00:00 16,6 15,9 24 13 - - S 1021,3 2,7 0,4
11.08.2018 11:00:00 16,6 15,6 21 11 - - S 1021,6 16 0,0
11.08.2018 10:00:00 16,1 15,4 18 10 - - SSE 1022,0 5 0,4
11.08.2018 09:00:00 15,6 15,0 16 9 - - SSE 1022,4 2,6 0,0
11.08.2018 08:00:00 14,8 14,3 8 4 - - SE 1022,5 10 0,2
11.08.2018 07:00:00 14,2 12,9 11 6 - - ESE 1022,5 3,7 0,0
11.08.2018 06:00:00 13,7 11,8 9 5 - - ESE 1022,6 16 0,0
11.08.2018 05:00:00 13,1 11,0 9 5 - - E 1022,7 24 0,0
11.08.2018 04:00:00 12,8 11,1 8 4 - - E 1022,9 29 0,0
11.08.2018 03:00:00 12,4 10,9 8 4 - - E 1023,1 35 0,0
11.08.2018 02:00:00 12,7 11,2 8 4 - - ENE 1023,3 24 0,0
11.08.2018 01:00:00 12,5 11,5 8 4 - - E 1023,5 30 0,0
11.08.2018 00:00:00 12,7 10,6 5 3 - - WNW 1023,4 26 0,0
10.08.2018 23:00:00 13,7 11,1 8 4 - - WNW 1023,2 40 0,0
10.08.2018 22:00:00 15,1 11,1 8 4 - - WNW 1022,8 40 0,0
10.08.2018 21:00:00 15,8 11,3 11 6 - - WNW 1022,1 40 0,0
10.08.2018 20:00:00 16,9 11,3 16 9 - - NW 1021,5 30 0,0
10.08.2018 19:00:00 17,7 11,2 18 10 - - WNW 1020,9 28 0,0
10.08.2018 18:00:00 18,9 13,4 21 11 - - W 1020,6 40 0,0
10.08.2018 17:00:00 19,4 14,6 16 9 - - W 1020,2 22 0,0
10.08.2018 16:00:00 19,0 16,6 16 9 - - WSW 1019,8 26 0,2
10.08.2018 15:00:00 16,0 14,1 15 8 48 26 WNW 1019,8 6 0,6
10.08.2018 14:00:00 16,3 13,8 34 18 46 25 WSW 1019,5 7 0,2
10.08.2018 13:00:00 18,9 15,7 24 13 - - WSW 1018,9 25 0,2
10.08.2018 12:00:00 15,1 13,7 28 15 - - W 1018,8 4,8 2,0
10.08.2018 11:00:00 16,4 15,7 22 12 - - WSW 1018,3 14 1,2
10.08.2018 10:00:00 16,9 14,7 34 18 46 25 WSW 1018,0 15 0,0
10.08.2018 09:00:00 15,2 14,1 28 15 - - WSW 1018,0 35 0,0
10.08.2018 08:00:00 14,3 13,3 22 12 - - WSW 1017,9 3,4 1,0
10.08.2018 07:00:00 15,1 12,9 16 9 - - SSW 1017,9 25 0,0
10.08.2018 06:00:00 14,8 12,1 16 9 - - SW 1018,4 21 0,0
10.08.2018 05:00:00 14,6 12,0 15 8 - - WSW 1018,6 16 0,0
10.08.2018 04:00:00 14,1 11,5 16 9 - - WSW 1018,7 19 0,0
10.08.2018 03:00:00 14,5 11,2 22 12 - - WSW 1019,0 22 0,0
10.08.2018 02:00:00 14,1 11,3 21 11 - - WSW 1019,2 29 0,0
10.08.2018 01:00:00 13,8 10,9 18 10 - - WSW 1019,2 20 0,0
10.08.2018 00:00:00 14,2 10,6 21 11 - - WSW 1019,2 24 0,0
09.08.2018 23:00:00 14,2 10,6 18 10 - - WSW 1018,8 30 0,0
09.08.2018 22:00:00 13,1 9,5 13 7 - - W 1018,5 30 0,0
09.08.2018 21:00:00 14,3 9,8 18 10 - - W 1018,1 25 0,4
09.08.2018 20:00:00 16,2 10,0 22 12 - - WSW 1017,3 21 0,0
09.08.2018 19:00:00 17,8 10,8 22 12 50 27 WSW 1016,9 22 0,0
09.08.2018 18:00:00 18,7 9,9 22 12 - - SW 1016,7 22 0,0
09.08.2018 17:00:00 15,9 9,6 28 15 52 28 WSW 1016,7 30 0,0
09.08.2018 16:00:00 19,9 9,3 26 14 - - SW 1016,2 24 0,0
09.08.2018 15:00:00 17,3 10,5 26 14 - - WSW 1016,2 19 0,0
09.08.2018 14:00:00 20,4 7,7 18 10 - - W 1015,8 21 0,0
09.08.2018 13:00:00 19,2 8,4 9 5 - - W 1015,5 25 0,0
09.08.2018 12:00:00 19,6 8,4 15 8 - - NW 1015,4 25 0,0
09.08.2018 11:00:00 18,9 11,0 15 8 - - NW 1015,1 19 0,0
09.08.2018 10:00:00 17,0 11,9 8 4 - - WSW 1015,0 30 0,0
09.08.2018 09:00:00 15,2 12,4 5 3 - - SW 1014,9 30 0,0
09.08.2018 08:00:00 12,8 12,2 0 0 - - N 1014,8 20 0,0
09.08.2018 07:00:00 11,4 10,7 2 1 - - N 1014,4 23 0,0
09.08.2018 06:00:00 12,0 11,1 5 3 - - ENE 1014,3 20 0,0
09.08.2018 05:00:00 12,5 11,8 5 3 - - W 1014,6 14 0,0
09.08.2018 04:00:00 12,1 10,4 4 2 - - NW 1014,5 20 0,0
09.08.2018 03:00:00 13,1 11,2 4 2 - - NE 1014,3 30 0,0
09.08.2018 02:00:00 13,6 11,5 4 2 - - E 1014,6 27 0,0
09.08.2018 01:00:00 14,2 11,4 5 3 - - NW 1015,0 24 0,0
09.08.2018 00:00:00 15,1 11,5 5 3 - - NNW 1014,7 29 0,0
08.08.2018 23:00:00 15,3 11,8 11 6 - - NNW 1014,5 27 0,0
08.08.2018 22:00:00 16,0 12,6 13 7 - - NNW 1014,4 23 0,0
08.08.2018 21:00:00 16,1 12,4 9 5 - - WSW 1014,0 27 0,0
08.08.2018 20:00:00 16,9 13,0 13 7 - - WSW 1013,7 18 0,0

tt = Température de l'air
td = dewpoint
ff = Vitesse du vent
fx = gusts
dd = Direction du vent
ppp = reduced air pressure
vv = visibility
rr = Quantités de précipitations

stations d'obs. à proximité